This is the latest recevied weather packets stored in our database for station/object WB5LFS-1. If no packets are shown the sender has not sent any weather packets the latest 10 day(s).
| Time | Temp. | Humidity | Pressure | Rain* | Wind** | Luminosity | Snow |
|---|---|---|---|---|---|---|---|
| 1778093806 | 20.56° C | 78% | 1010.9 hPa | 0 mm | - | - | - |
| 1778092906 | 20° C | 80% | 1011.1 hPa | 0 mm | - | - | - |
| 1778092007 | 20° C | 81% | 1011.4 hPa | 0 mm | - | - | - |
| 1778091107 | 21.11° C | 77% | 1011.5 hPa | 0 mm | - | - | - |
| 1778090207 | 21.11° C | 72% | 1011.5 hPa | 0 mm | - | - | - |
| 1778089307 | 20.56° C | 75% | 1011.4 hPa | 0 mm | - | - | - |
| 1778088407 | 20.56° C | 80% | 1011.5 hPa | 0 mm | - | - | - |
| 1778087507 | 20° C | 78% | 1011.3 hPa | 0 mm | - | - | - |
| 1778086607 | 18.89° C | 82% | 1011.6 hPa | 0 mm | - | - | - |
| 1778085707 | 18.33° C | 85% | 1012.1 hPa | 0.51 mm | - | - | - |
| 1778084807 | 18.33° C | 87% | 1012.1 hPa | 0.76 mm | - | - | - |
| 1778083907 | 17.78° C | 89% | 1012.3 hPa | 0.76 mm | - | - | - |
| 1778083007 | 17.78° C | 86% | 1012.5 hPa | 0.76 mm | - | - | - |
| 1778082107 | 17.78° C | 86% | 1012.9 hPa | 0.51 mm | - | - | - |
| 1778081207 | 18.33° C | 85% | 1013.3 hPa | 0.25 mm | - | - | - |
| 1778080307 | 18.33° C | 83% | 1013.4 hPa | 0.25 mm | - | - | - |
| 1778079407 | 18.89° C | 80% | 1013.4 hPa | 0.25 mm | - | - | - |
| 1778078507 | 20.56° C | 73% | 1013.6 hPa | 0 mm | - | - | - |
| 1778077607 | 20.56° C | 71% | 1012.8 hPa | 0 mm | - | - | - |
| 1778076707 | 19.44° C | 73% | 1012.7 hPa | 0 mm | - | - | - |
| 1778075807 | 18.89° C | 77% | 1013 hPa | 0 mm | - | - | - |
| 1778074907 | 18.89° C | 78% | 1012.7 hPa | 0 mm | - | - | - |
| 1778074007 | 18.89° C | 76% | 1012.5 hPa | 0 mm | - | - | - |
| 1778073107 | 19.44° C | 74% | 1012.7 hPa | 0 mm | - | - | - |
| 1778072207 | 19.44° C | 74% | 1012.8 hPa | 0 mm | - | - | - |
* Rain latest hour (hover to see other rain measurements)
** Current wind speed in m/s (hover to see current wind gust speed)